Weather in Barmer

India     25°44′25″N   71°23′35″E
temp.,
°C
wind,
m/s
gust,
m/s
humid.,
%
clouds,
%
prec.,
mm/h
press.,
hPa
HPBL,
m
21 january, thu
thu2123:30+16nnw23250 0.0 101523
02:30+16nne34220 0.0 101523
05:30+14nne34240 0.0 101423
08:30+16ne23220 0.0 101626
11:30+25e22130 0.0 1016461
14:30+28sw1190 0.0 10131404
17:30+26ssw12110 0.0 101224
20:30+20ssw34160 0.0 101323
22 january, fri
fri2223:30+19wsw56210 0.0 101345
02:30+18w45230 0.0 101327
05:30+13ssw124310 0.0 101223
08:30+16s334912 0.0 101431
11:30+25s57306 0.0 1014691
14:30+30ssw89190 0.0 10101297
17:30+28ssw79230 0.0 1009650
20:30+21ssw69410 0.0 1011134
23 january, sat
sat2323:30+19ssw58600 0.0 1011117
02:30+17wsw45830 0.0 101060
05:30+15w34890 0.0 101041
08:30+16w12760 0.0 101237
11:30+25nnw4470 0.0 1012725
14:30+28wnw5580 0.0 10101412
17:30+26wnw6890 0.0 1009447
20:30+18nnw56150 0.0 101258
24 january, sun
sun2423:30+15nnw4570 0.0 101332
02:30+13nnw5680 0.0 101343
05:30+11n45100 0.0 101333
08:30+12nne44100 0.0 101651
11:30+22ene4570 0.0 1016566
14:30+25ne3350 0.0 10141529
17:30+23ne3360 0.0 101441
20:30+16nne45110 0.0 101632
25 january, mon
mon2523:30+14ne45130 0.0 101741
02:30+12ne45170 0.0 101641
05:30+10ne45220 0.0 101643
08:30+11ne46210 0.0 101891
11:30+20ene67100 0.0 1019711
14:30+24ne4570 0.0 10161324
17:30+23nne3470 0.0 101566
20:30+16nne5690 0.0 101631